AXIOM-1 DEB (52319 NORAD) Tracking and Keplerian Element Data

This shows tracking and keplerian element data for the satellite.

Feedback or suggestion? Click here.




ElementValue
Catalog52319
NameAXIOM-1 DEB
Epoch Orbit221
Epoch Day129.50829355
Epoch Year2022
RAAN163.1072
Inclination51.886
Eccentricity0.0064691
Argument of Perigee223.575
Mean Anonmoly136.0561
Mean Motion16.11065277
Decay Rate0.01189108
L11 52319U 22037B 22129.50829355 .01189108 11547-4 80863-3 0 9995
L22 52319 51.8860 163.1072 0064691 223.5750 136.0561 16.11065277 2213

Live tracking and technical data element details for AXIOM-1 DEB (NORAD 52319). AXIOM-1 DEB can be tracked NOW for your location showing map with azimuth and elevation plus other details from your city location.

Track the satellite on the map from your city or location and see movement details for azimuth, elevation, latitude, longitude, range, height, and movement on the map or in text.







IsCatalogInMostPopularTable: catalog: 52319, numindb: 1
Update: records affected: 1



GetName: 52319 AXIOM-1 DEB

Hit Count: updated at: Sat, 25 Jun 2022 04:35:14 GMT